User: anonymous   Login
Location: Observatorio Las Palmas
(29.0667°N, 110.9333°W)
Time: 08:39:22
(UTC-07:00)
Language:

Skynet4D Del rocket - Orbit

View from above orbital plane
View from above orbital plane
View from above satellite
View from above satellite

Ground track
Ground track

The orbit data is extracted from the following two-line orbital elements,

1 25135U 98002B   16144.15245840  .00000156  00000-0  36246-4 0  9997
2 25135  26.8842  62.0859 0356597 118.4390  20.8391 13.62333891915297
Epoch (UTC): 23 May 2016 03:39:32
Eccentricity: 0.0356597
inclination: 26.8842°
perigee height: 763 km
apogee height: 1291 km
right ascension of ascending node: 62.0859°
argument of perigee: 118.4390°
revolutions per day: 13.62333891
mean anomaly at epoch: 20.8391°
orbit number at epoch: 91529

The dashed part of the orbit path shows where the satellite is in the earth's shadow,  

DLR